DateTimeUTC,F1_A11,F1_S11,BsB_S11,BsG_S11,BsR_S11,BbsB_S11,BbsG_S11,BbsR_S11,BaB_A11,BaG_A11,BaR_A11,Tu_S11,T_S11,Uu_S11,U_S11,P_S11,T1_A11
2021-06-24T17:00:00Z,00000200,20000000,,,,,,,0000.10,0000.40,0000.02,20.1,26.7,08.2,05.5,0671.0,31.3
2021-06-24T17:01:00Z,00000200,20000000,,,,,,,0000.19,-000.10,-000.12,20.1,26.7,08.2,05.5,0671.0,31.3
2021-06-24T17:02:00Z,00000200,20000000,,,,,,,-000.34,-000.24,-000.33,20.1,26.7,08.2,05.5,0671.0,31.3
2021-06-24T17:03:00Z,00000200,60000000,,,,,,,0000.22,0000.03,0000.30,20.1,26.7,08.2,05.5,0671.0,31.3
2021-06-24T17:04:00Z,00000200,40000000,0000.62,0000.50,0000.45,-000.04,0000.43,-000.20,0000.10,-000.03,-000.06,20.2,26.5,08.4,05.7,0671.9,31.3
2021-06-24T17:05:00Z,00000200,00000000,0000.95,0000.41,0000.39,0000.36,0000.17,-000.40,0000.32,0000.49,0000.36,20.2,26.5,08.4,05.8,0671.9,31.3
2021-06-24T17:06:00Z,00000200,00000000,0000.54,0000.36,0000.44,-000.11,0000.14,-000.10,0000.10,0000.09,0000.15,20.2,26.5,08.5,05.8,0671.9,31.3
2021-06-24T17:07:00Z,00000200,00000000,0001.01,0000.55,0000.40,0000.03,0000.06,-000.01,0000.27,0000.03,0000.32,20.3,26.5,08.5,05.8,0671.9,31.3
2021-06-24T17:08:00Z,00000200,00000000,0001.22,0000.48,0000.15,-000.13,0000.05,-000.17,-000.10,0000.03,-000.01,20.2,26.5,08.6,05.9,0671.9,31.3
2021-06-24T17:09:00Z,00000200,00000000,0000.69,0000.29,0000.59,0000.39,0000.38,-000.02,0000.69,0000.36,0000.09,20.2,26.5,08.7,06.0,0671.9,31.3
2021-06-24T17:10:00Z,00000200,00000000,0001.00,0000.61,0000.47,0000.15,0000.10,-000.23,-000.17,0000.45,0000.24,20.2,26.5,08.7,06.0,0671.9,31.3
2021-06-24T17:11:00Z,00000200,00000000,0001.17,0000.32,0000.51,0000.60,0000.39,0000.14,0000.37,-000.27,0000.24,20.3,26.5,08.6,05.9,0671.9,31.3
2021-06-24T17:12:00Z,00000200,00000000,0001.43,0000.37,0000.49,0000.16,0000.22,-000.20,0000.00,0000.07,-000.26,20.3,26.5,08.7,06.0,0671.8,31.2
2021-06-24T17:13:00Z,00000200,00000000,0001.27,0000.62,0000.35,0000.28,0000.14,-000.25,0000.14,0000.10,0000.17,20.3,26.5,08.6,05.9,0671.8,31.2
2021-06-24T17:14:00Z,00000200,00000000,0000.65,0000.51,0000.39,-000.45,0000.33,0000.06,0000.05,0000.37,-000.01,20.3,26.5,08.7,06.0,0671.8,31.2
2021-06-24T17:15:00Z,00000200,00000000,0000.43,0000.53,0000.15,-000.23,0000.14,-000.01,0000.45,0000.56,0000.28,20.3,26.5,08.7,06.0,0671.8,31.2
2021-06-24T17:16:00Z,00000200,00000000,0000.39,0000.43,0000.39,-000.17,0000.25,0000.16,-000.21,0000.12,0000.32,20.3,26.5,08.7,06.0,0671.8,31.3
2021-06-24T17:17:00Z,00000200,00000000,0000.61,0000.39,0000.40,0000.04,0000.03,-000.14,0000.61,0000.06,0000.03,20.3,26.5,08.6,05.9,0671.8,31.3
2021-06-24T17:18:00Z,00000200,00000000,0000.53,0000.51,0000.26,0000.82,0000.24,-000.14,-000.01,-000.01,0000.06,20.3,26.4,08.8,06.0,0671.8,31.3
2021-06-24T17:19:00Z,00000200,00000000,-000.02,0000.50,0000.69,-000.14,0000.04,0000.28,0000.16,0000.10,-000.06,20.3,26.4,08.6,05.9,0671.8,31.3
2021-06-24T17:20:00Z,00000200,00000000,0000.37,0000.64,0000.09,-000.30,0000.06,-000.15,0000.23,0000.26,0000.33,20.3,26.5,08.8,06.1,0671.8,31.2
2021-06-24T17:21:00Z,00000200,00000000,0000.64,0000.43,0000.12,0000.22,0000.17,-000.25,0000.31,-000.18,-000.24,20.3,26.5,09.0,06.2,0671.8,31.2
2021-06-24T17:22:00Z,00000200,00000000,0001.18,0000.45,0000.26,0000.21,0000.27,-000.10,0000.01,0000.39,0000.35,20.3,26.5,08.5,05.9,0671.7,31.2
2021-06-24T17:23:00Z,00000200,00000000,0000.38,0000.67,0000.07,0000.57,-000.01,0000.06,0000.23,-000.06,0000.12,20.3,26.4,08.6,05.9,0671.8,31.3
2021-06-24T17:24:00Z,00000200,00000000,0000.24,0000.34,0000.27,-000.29,0000.20,-000.29,-000.20,0000.28,-000.10,20.3,26.4,08.6,05.9,0671.7,31.3
2021-06-24T17:25:00Z,00000200,00000000,0000.49,0000.44,0000.01,0000.04,0000.03,-000.20,0000.45,0000.23,0000.13,20.3,26.4,08.7,06.0,0671.8,31.3
2021-06-24T17:26:00Z,00000200,00000000,0000.47,0000.43,0000.57,0000.44,0000.09,0000.22,0000.04,-000.02,0000.30,20.3,26.4,08.9,06.1,0671.8,31.3
2021-06-24T17:27:00Z,00000200,00000000,0000.69,0000.42,0000.34,0000.09,0000.26,-000.11,0000.26,0000.42,0000.07,20.3,26.4,08.8,06.1,0671.8,31.2
2021-06-24T17:28:00Z,00000200,00000000,0001.01,0000.37,0000.35,0000.36,0000.19,-000.33,0000.53,-000.03,0000.30,20.3,26.4,08.9,06.1,0671.7,31.2
2021-06-24T17:29:00Z,00000200,00000000,0000.86,0000.33,-000.21,0000.24,0000.07,-000.16,-000.42,0000.27,-000.26,20.3,26.4,08.8,06.0,0671.6,31.3
2021-06-24T17:30:00Z,00000200,00000000,0001.76,0000.73,0000.33,0000.06,0000.00,0000.04,0000.52,0000.23,0000.42,20.3,26.4,08.9,06.1,0671.7,31.3
2021-06-24T17:31:00Z,00000200,00000000,0000.83,0000.58,0000.33,-000.14,0000.02,-000.44,-000.13,-000.25,-000.03,20.3,26.4,08.9,06.1,0671.6,31.2
2021-06-24T17:32:00Z,00000200,00000000,0000.78,0000.39,0000.44,-000.31,0000.18,0000.04,0000.33,0000.38,0000.16,20.3,26.4,09.1,06.2,0671.7,31.2
2021-06-24T17:33:00Z,00000200,00000000,0000.27,0000.51,0000.29,-000.18,0000.12,-000.02,0000.17,0000.05,-000.08,20.3,26.4,09.0,06.2,0671.7,31.2
2021-06-24T17:34:00Z,00000200,00000000,0000.78,0000.38,0000.40,0000.20,0000.16,-000.21,0000.14,0000.31,0000.27,20.3,26.4,08.9,06.2,0671.6,31.2
2021-06-24T17:35:00Z,00000200,00000000,0000.65,0000.54,0000.27,0000.03,0000.22,-000.35,0000.15,-000.33,0000.10,20.2,26.4,08.8,06.1,0671.6,31.2
2021-06-24T17:36:00Z,00000200,00000000,-000.06,0000.33,-000.02,-000.56,0000.24,0000.11,-000.28,-000.06,-000.05,20.2,26.4,08.8,06.1,0671.6,31.2
2021-06-24T17:37:00Z,00000200,00000000,0000.42,0000.46,0000.41,0000.09,-000.11,-000.05,0000.33,0000.15,0000.10,20.2,26.4,08.7,06.0,0671.6,31.2
2021-06-24T17:38:00Z,00000200,00000000,0000.26,0000.35,0000.34,0000.16,0000.10,-000.11,-000.23,-000.12,-000.16,20.2,26.4,08.7,06.0,0671.6,31.2
2021-06-24T17:39:00Z,00000200,00000000,0001.20,0000.53,0000.06,0000.22,0000.09,0000.12,0000.19,0000.30,0000.01,20.2,26.4,08.8,06.0,0671.5,31.2
2021-06-24T17:40:00Z,00000200,00000000,0000.17,0000.31,0000.44,-000.02,0000.21,0000.05,0000.50,0000.37,0000.11,20.2,26.4,08.7,06.0,0671.5,31.2
2021-06-24T17:41:00Z,00000200,00000000,0000.83,0000.56,0000.22,-000.20,0000.35,0000.04,-000.13,-000.18,0000.17,20.2,26.4,08.8,06.1,0671.5,31.3
2021-06-24T17:42:00Z,00000200,00000000,0000.59,0000.28,0000.14,0000.12,0000.11,0000.04,0000.30,0000.17,0000.25,20.2,26.4,08.9,06.1,0671.5,31.3
2021-06-24T17:43:00Z,00000200,00000000,0000.59,0000.10,0000.14,-000.06,0000.02,-000.30,0000.28,0000.07,0000.02,20.2,26.4,09.0,06.2,0671.5,31.3
2021-06-24T17:44:00Z,00000200,00000000,0000.75,0000.64,0000.30,0000.16,0000.31,-000.42,0000.01,0000.10,-000.01,20.2,26.4,09.0,06.2,0671.5,31.3
2021-06-24T17:45:00Z,00000200,00000000,0000.52,0000.70,0000.25,-000.26,-000.03,-000.13,-000.43,0000.21,0000.13,20.2,26.4,08.9,06.1,0671.5,31.3
2021-06-24T17:46:00Z,00000200,00000000,0001.03,0000.26,0000.25,0000.16,0000.41,-000.12,0000.66,0000.19,-000.00,20.2,26.4,08.8,06.0,0671.5,31.3
2021-06-24T17:47:00Z,00000200,00000000,-000.79,0000.42,0000.39,0000.05,0000.01,-000.08,-000.33,-000.01,-000.05,20.2,26.4,08.8,06.1,0671.6,31.3
2021-06-24T17:48:00Z,00000200,00000000,0000.88,0000.29,0000.05,-000.01,-000.20,-000.24,0000.34,0000.30,0000.06,20.2,26.4,08.7,06.0,0671.6,31.3
2021-06-24T17:49:00Z,00000200,00000000,0000.77,0000.67,-000.07,-000.12,0000.02,-000.06,0000.29,-000.13,0000.31,20.2,26.4,08.7,06.0,0671.6,31.3
2021-06-24T17:50:00Z,00000200,00000000,0000.62,0000.63,0000.24,0000.01,-000.03,0000.22,0000.11,0000.31,0000.11,20.2,26.4,08.9,06.1,0671.6,31.3
2021-06-24T17:51:00Z,00000200,00000000,0000.93,0000.45,0000.25,0000.40,0000.42,-000.03,0000.01,0000.20,0000.16,20.2,26.4,08.9,06.2,0671.6,31.3
2021-06-24T17:52:00Z,00000200,00000000,0001.41,0000.34,0000.48,0000.26,0000.18,-000.12,0000.20,-000.15,-000.12,20.2,26.4,08.8,06.0,0671.6,31.3
2021-06-24T17:53:00Z,00000200,00000000,0000.84,0000.32,0000.55,-000.11,-000.06,0000.04,-000.18,0000.32,-000.09,20.2,26.4,08.5,05.9,0671.6,31.3
2021-06-24T17:54:00Z,00000200,00000000,0000.82,0000.39,-000.01,-000.05,0000.22,-000.24,0000.32,0000.03,0000.33,20.2,26.4,08.7,06.0,0671.6,31.3
2021-06-24T17:55:00Z,00000200,00000000,0000.79,0000.66,-000.08,0000.38,0000.28,-000.24,0000.05,-000.04,-000.06,20.2,26.4,08.8,06.0,0671.5,31.3
2021-06-24T17:56:00Z,00000200,00000000,0000.85,0000.48,0000.61,-000.25,0000.01,0000.25,0000.49,0000.12,0000.61,20.2,26.4,08.9,06.1,0671.6,31.3
2021-06-24T17:57:00Z,00000200,40000000,,,,,,,-000.08,0000.54,-000.47,20.2,26.5,08.9,06.1,0671.6,31.3
2021-06-24T17:58:00Z,00000200,60000000,,,,,,,0000.20,-000.27,0000.20,20.1,26.5,09.0,06.1,0670.5,31.3
2021-06-24T17:59:00Z,00000200,20000000,,,,,,,-000.58,-000.03,-000.28,20.1,26.6,08.8,05.9,0670.5,31.3
